Date String (YYYY-MM-DD hh:mm:ss) UTC,Instrument flags,absolute air pressure of the measurement (hPa),sample flow rate (lpm),inlet stack bypass flow (lpm),air temperature of the measurement (°C),ambient temperature measured by the external sensor (°C),aerosol sample conditioner tube jacket temperature (°C),OPC LED temperature (°C),internal box temperature (°C),relative humidity of the measurement (%),span deviation,mass concentration of particles derived from Lorenz-Mie calculation of OPC scattering (μg/m³),mass concentration of particles derived from Lorenz-Mie calculation of OPC scattering (μg/m³),mass concentration of particles derived from Lorenz-Mie calculation of OPC scattering (μg/m³)
DateTimeUTC,F1_M11,P_M11,Q1_M11,Q2_M11,T1_M11,T2_M11,T3_M11,T4_M11,T5_M11,U1_M11,ZSPAN_M11,X2_M11,X0_M11,X1_M11
2023-06-29 23:00:00,SystemResetWarning,0829.9,4.99,000.00,031.2,025.7,000.0,038.9,031.0,35.8,0001.0,0008.33,0017.54,0006.71
2023-06-29 23:01:00,SystemResetWarning,0830.0,5.01,000.00,031.5,026.2,000.0,038.9,031.2,34.9,0001.5,0008.34,0017.72,0006.73
2023-06-29 23:02:00,SystemResetWarning,0830.0,4.98,000.00,031.7,026.6,000.0,039.0,031.4,33.7,0001.6,0008.32,0017.48,0006.74
2023-06-29 23:03:00,SystemResetWarning,0830.1,5.00,000.00,031.8,026.9,000.0,039.1,031.4,32.4,0001.3,0008.32,0018.02,0006.75
2023-06-29 23:04:00,SystemResetWarning,0830.1,5.01,000.00,031.9,027.3,000.0,039.2,031.5,31.9,0001.3,0008.31,0017.00,0006.75
2023-06-29 23:05:00,SystemResetWarning,0830.1,5.01,000.00,031.9,027.5,000.0,039.3,031.5,31.8,0001.1,0008.26,0017.40,0006.75
2023-06-29 23:06:00,SystemResetWarning,0830.2,4.99,000.00,031.9,027.7,000.0,039.4,031.5,32.1,0000.8,0008.22,0017.42,0006.76
2023-06-29 23:07:00,SystemResetWarning,0830.2,4.99,000.00,032.0,027.9,000.0,039.5,031.6,32.2,0000.8,0008.16,0016.67,0006.74
2023-06-29 23:08:00,SystemResetWarning,0830.3,5.02,000.00,032.0,028.1,000.0,039.6,031.6,32.4,0000.7,0008.14,0016.93,0006.75
2023-06-29 23:09:00,SystemResetWarning,0830.2,5.00,000.00,032.0,028.2,000.0,039.6,031.7,33.0,0000.7,0008.08,0016.68,0006.73
2023-06-29 23:10:00,SystemResetWarning,0830.2,4.98,000.00,032.0,027.1,000.0,039.6,031.7,33.4,0000.6,0008.07,0017.06,0006.72
2023-06-29 23:11:00,SystemResetWarning,0830.1,5.01,000.00,032.0,026.0,000.0,039.5,031.5,33.5,0000.5,0008.06,0017.82,0006.68
2023-06-29 23:12:00,SystemResetWarning,0830.1,5.01,000.00,031.9,025.8,000.0,039.5,031.3,34.2,0000.1,0008.11,0017.61,0006.67
2023-06-29 23:13:00,SystemResetWarning,0830.1,5.01,000.00,031.7,026.1,000.0,039.5,031.2,34.7,0000.0,0008.21,0017.88,0006.68
2023-06-29 23:14:00,SystemResetWarning,0830.0,4.99,000.00,031.6,026.5,000.0,039.6,031.2,34.5,0000.4,0008.27,0017.42,0006.69
2023-06-29 23:15:00,SystemResetWarning,0830.0,4.99,000.00,031.5,026.8,000.0,039.6,031.3,34.7,0000.4,0008.28,0016.93,0006.70
2023-06-29 23:16:00,SystemResetWarning,0830.0,4.98,000.00,031.4,027.2,000.0,039.6,031.4,35.0,0000.8,0008.29,0016.58,0006.72
2023-06-29 23:17:00,SystemResetWarning,0830.0,5.02,000.00,031.5,027.4,000.0,039.6,031.5,35.5,0000.9,0008.36,0016.93,0006.72
2023-06-29 23:18:00,SystemResetWarning,0830.0,4.99,000.00,031.7,027.7,000.0,039.6,031.6,35.3,0000.7,0008.47,0018.08,0006.74
2023-06-29 23:19:00,SystemResetWarning,0830.0,5.02,000.00,032.0,027.9,000.0,039.6,031.8,34.9,0000.2,0008.53,0018.29,0006.73
2023-06-29 23:20:00,SystemResetWarning,0830.0,4.98,000.00,032.2,028.0,000.0,039.6,031.9,33.8,-000.1,0008.62,0019.12,0006.73
2023-06-29 23:21:00,SystemResetWarning,0830.0,5.00,000.00,032.3,028.2,000.0,039.7,031.9,33.5,0000.1,0008.61,0019.69,0006.72
2023-06-29 23:22:00,SystemResetWarning,0830.0,5.00,000.00,032.4,027.5,000.0,039.7,031.9,32.9,0000.4,0008.59,0018.96,0006.70
2023-06-29 23:23:00,SystemResetWarning,0830.0,5.00,000.00,032.4,026.1,000.0,039.6,031.7,32.8,0000.9,0008.58,0018.73,0006.67
2023-06-29 23:24:00,SystemResetWarning,0829.9,5.01,000.00,032.4,025.7,000.0,039.6,031.5,32.5,0001.1,0008.46,0018.78,0006.62
2023-06-29 23:25:00,SystemResetWarning,0829.9,5.02,000.00,032.2,026.0,000.0,039.7,031.3,33.0,0000.3,0008.42,0018.84,0006.59
2023-06-29 23:26:00,SystemResetWarning,0830.0,4.99,000.00,032.0,026.3,000.0,039.8,031.3,33.3,0000.2,0008.34,0019.58,0006.54
2023-06-29 23:27:00,SystemResetWarning,0830.0,4.99,000.00,031.9,026.7,000.0,039.8,031.4,33.3,-000.2,0008.35,0019.86,0006.52
2023-06-29 23:28:00,SystemResetWarning,0830.1,5.00,000.00,031.9,027.0,000.0,039.9,031.5,33.7,-000.9,0008.29,0019.38,0006.47
2023-06-29 23:29:00,SystemResetWarning,0830.1,5.01,000.00,031.9,027.3,000.0,039.9,031.5,33.8,-001.2,0008.24,0019.42,0006.42
2023-06-29 23:30:00,SystemResetWarning,0830.2,5.01,000.00,031.8,027.6,000.0,039.9,031.6,33.2,-001.3,0008.21,0019.81,0006.38
2023-06-29 23:31:00,SystemResetWarning,0830.3,5.01,000.00,031.8,027.8,000.0,039.9,031.6,33.1,-000.9,0008.20,0020.30,0006.35
2023-06-29 23:32:00,SystemResetWarning,0830.2,4.98,000.00,031.7,028.0,000.0,039.9,031.7,33.2,-001.0,0008.16,0019.59,0006.31
2023-06-29 23:33:00,SystemResetWarning,0830.2,4.99,000.00,031.7,028.1,000.0,039.9,031.7,33.1,-001.1,0008.14,0019.54,0006.29
2023-06-29 23:34:00,SystemResetWarning,0830.2,5.00,000.00,031.7,027.8,000.0,039.8,031.7,33.1,-001.4,0008.09,0019.69,0006.27
2023-06-29 23:35:00,SystemResetWarning,0830.1,5.00,000.00,031.7,026.3,000.0,039.7,031.6,33.2,-001.5,0008.13,0019.56,0006.25
2023-06-29 23:36:00,SystemResetWarning,0830.1,5.00,000.00,031.6,025.7,000.0,039.6,031.4,33.3,-001.2,0008.19,0020.12,0006.25
2023-06-29 23:37:00,SystemResetWarning,0830.0,5.01,000.00,031.5,025.8,000.0,039.5,031.2,33.3,-001.2,0008.19,0019.76,0006.24
2023-06-29 23:38:00,SystemResetWarning,0830.0,5.01,000.00,031.3,026.1,000.0,039.6,031.2,33.2,-000.9,0008.20,0019.76,0006.22
2023-06-29 23:39:00,SystemResetWarning,0830.0,5.00,000.00,031.2,026.5,000.0,039.5,031.2,33.5,-000.5,0008.19,0019.75,0006.21
2023-06-29 23:40:00,SystemResetWarning,0829.8,5.00,000.00,031.1,026.9,000.0,039.5,031.3,33.6,-000.4,0008.14,0019.17,0006.19
2023-06-29 23:41:00,SystemResetWarning,0829.8,4.98,000.00,031.1,027.2,000.0,039.5,031.4,33.4,-000.1,0008.05,0018.34,0006.16
2023-06-29 23:42:00,SystemResetWarning,0829.7,5.00,000.00,031.0,027.4,000.0,039.5,031.4,33.4,-000.5,0008.01,0017.21,0006.12
2023-06-29 23:43:00,SystemResetWarning,0829.7,5.01,000.00,031.0,027.6,000.0,039.5,031.4,33.6,-000.9,0008.00,0017.48,0006.11
2023-06-29 23:44:00,SystemResetWarning,0829.7,5.00,000.00,031.0,027.8,000.0,039.5,031.5,33.5,-000.7,0007.96,0017.84,0006.10
2023-06-29 23:45:00,SystemResetWarning,0829.6,5.01,000.00,031.0,028.0,000.0,039.4,031.5,34.3,-000.2,0007.91,0017.43,0006.08
2023-06-29 23:46:00,SystemResetWarning,0829.6,5.00,000.00,030.9,028.1,000.0,039.4,031.5,34.5,-000.3,0007.90,0017.64,0006.08
2023-06-29 23:47:00,SystemResetWarning,0829.5,4.99,000.00,030.9,028.1,000.0,039.4,031.6,34.6,0000.1,0007.80,0017.21,0006.08
2023-06-29 23:48:00,SystemResetWarning,0829.4,4.99,000.00,030.9,026.8,000.0,039.2,031.5,34.0,0000.7,0007.80,0017.05,0006.07
2023-06-29 23:49:00,SystemResetWarning,0829.3,5.00,000.00,030.9,025.8,000.0,039.1,031.3,34.0,0000.8,0007.76,0016.80,0006.06
2023-06-29 23:50:00,SystemResetWarning,0829.4,5.01,000.00,030.8,025.7,000.0,039.1,031.1,34.2,0001.1,0007.76,0016.46,0006.07
2023-06-29 23:51:00,SystemResetWarning,0829.3,5.01,000.00,030.6,026.0,000.0,039.1,031.0,34.2,0001.7,0007.75,0016.12,0006.07
2023-06-29 23:52:00,SystemResetWarning,0829.3,4.99,000.00,030.5,026.4,000.0,039.0,031.0,34.2,0001.6,0007.77,0017.17,0006.08
2023-06-29 23:53:00,SystemResetWarning,0829.3,5.00,000.00,030.5,026.8,000.0,039.0,031.1,34.5,0002.0,0007.78,0017.88,0006.10
2023-06-29 23:54:00,SystemResetWarning,0829.2,5.00,000.00,030.4,027.1,000.0,039.0,031.2,34.5,0001.2,0007.77,0017.30,0006.10
2023-06-29 23:55:00,SystemResetWarning,0829.3,5.00,000.00,030.4,027.3,000.0,039.0,031.2,34.1,0000.0,0007.81,0017.02,0006.09
2023-06-29 23:56:00,SystemResetWarning,0829.3,5.01,000.00,030.4,027.6,000.0,039.0,031.3,33.6,0000.0,0007.80,0017.20,0006.08
2023-06-29 23:57:00,SystemResetWarning,0829.4,5.00,000.00,030.4,027.8,000.0,039.0,031.3,33.7,0001.3,0007.77,0017.56,0006.06
2023-06-29 23:58:00,SystemResetWarning,0829.3,4.99,000.00,030.4,027.9,000.0,038.9,031.3,33.9,0000.0,0007.74,0017.60,0006.02
2023-06-29 23:59:00,SystemResetWarning,0829.4,5.00,000.00,030.4,028.1,000.0,038.9,031.4,33.6,0000.0,0007.67,0017.57,0005.97
